Location: G�nzburg
(48.4565°N, 10.3217°E)
Time: 09:53:14
(UTC+01:00)

ISS - Pass Details

Date: 11 January 2018
Orbit: 401 x 406 km, 51.6° (Epoch: 17 January)

Event Time Altitude Azimuth Distance (km) Brightness Sun altitude
Exits shadow 07:15:07 11° 278° (W) 1,401 -1.7 -8.5°
Maximum altitude 07:17:54 32° 215° (SW) 726 -2.6 -8.1°
Drops below altitude 10° 07:20:52 10° 150° (SSE) 1,460 -0.1 -7.7°
Sets 07:23:04 0° 140° (SE) 2,317 1.4 -7.3°
